Voltar ao catálogo

EKRAN 2 DEB

LostGEO
NORAD 59988·DEBRIS·🇷🇺 Russia

Lançado Sep 20, 1977 de Baikonur Cosmodrome

Loading…

TLE

ObsoletoSource: Space-Track

Época: May 14, 2026, 13:23 UTC

1 59988U 77092P   26134.55788483  .00000130  00000-0  00000-0 0  9992
2 59988   4.0234 271.8693 0044461  85.0066 275.5603  1.00888840 74707

Acompanhe EKRAN 2 DEB em tempo real com AllMySat

Download on the App Store